Flag for Russia Weather past 2 weeks in Yakutsk, Russia

Now
50 °F

Broken clouds.


Feels Like: 49 °F
Forecast: 31 / 47 °F
Wind: 3 mph from Southeast

Location: Jakutsk

Current Time: Sep 18, 2014 at 5:40:32 PM

Latest Report: Sep 18, 2014 at 5:00 PM


Visibility: N/A

Pressure: 30.18 "Hg

Humidity: 47%

Dew point: 30 °F

Location of YakutskLocation

Historic Weather in Yakutsk — Graph

°F

Yakutsk temperature yesterday

Maximum temperature yesterday: 52 °F (at 3:00 PM)
Minimum temperature yesterday: 39 °F (at 8:00 AM)
Average temperature yesterday: 46 °F

Past Weeks' High & Low Weather Summary

 TemperatureHumidityPressure
High75 °F (Sep 3, 4:00 PM)100% (Sep 10, 11:30 PM)30.24 "Hg (Sep 10, 11:30 PM)
Low28 °F (Sep 5, 4:30 AM)27% (Sep 6, 3:30 PM)29.56 "Hg (Sep 15, 2:00 PM)
Average47 °F72%29.90 "Hg
* Reported Sep 3 4:00 PM — Sep 18 4:30 PM, Yakutsk, Weather by CustomWeather, © 2014

Note: Actual official high and low records may vary slightly from our data, if they occured in-between our weather recording intervals... More about our weather records

Advertising

Yakutsk weather history for previous 24 hours

 ConditionsComfort  
Time TempWeatherWind HumidityBarometerVisibility
4:30 PM
Sep 18
50 °FBroken clouds.No wind43%30.18 "HgN/A
4:00 PM48 °FBroken clouds.No wind46%30.18 "HgN/A
3:30 PM48 °FBroken clouds.1 mph50%30.18 "HgN/A
3:00 PM48 °FBroken clouds.3 mph50%30.21 "HgN/A
2:30 PM48 °FBroken clouds.3 mph46%30.21 "HgN/A
2:00 PM50 °FBroken clouds.3 mph43%30.21 "HgN/A
1:30 PM52 °FBroken clouds.8 mph38%30.21 "HgN/A
1:00 PM50 °FPassing clouds.3 mph43%30.21 "HgN/A
12:30 PM50 °FSunny.8 mph43%30.21 "Hg10 mi
12:00 PM50 °FSunny.6 mph47%30.21 "Hg10 mi
11:30 AM48 °FSunny.6 mph50%30.24 "Hg10 mi
11:00 AM46 °FPassing clouds.3 mph53%30.24 "HgN/A
10:30 AM45 °FSunny.No wind57%30.24 "Hg10 mi
10:00 AM43 °FSunny.1 mph61%30.24 "Hg10 mi
9:30 AM43 °FSunny.No wind61%30.24 "Hg10 mi
9:00 AM39 °FSunny.3 mph70%30.24 "Hg10 mi
8:30 AM39 °FSunny.6 mph70%30.24 "Hg10 mi
8:00 AM36 °FSunny.6 mph81%30.24 "Hg10 mi
7:30 AM34 °FClear.3 mph87%30.24 "Hg10 mi
7:00 AM32 °FClear.3 mph87%30.24 "Hg10 mi
6:30 AM34 °FClear.6 mph87%30.24 "Hg10 mi
6:00 AM36 °FClear.6 mph81%30.21 "Hg10 mi
5:30 AM36 °FClear.6 mph81%30.21 "Hg10 mi
5:00 AM36 °FPassing clouds.6 mph81%30.21 "HgN/A
4:30 AM37 °FPassing clouds.3 mph81%30.21 "HgN/A
4:00 AM39 °FOvercast.6 mph75%30.21 "HgN/A
3:30 AM39 °FOvercast.3 mph75%30.21 "HgN/A
3:00 AM39 °FOvercast.6 mph75%30.21 "HgN/A
2:30 AM39 °FOvercast.8 mph75%30.21 "HgN/A
2:00 AM39 °FOvercast.8 mph81%30.18 "HgN/A
1:30 AM39 °FOvercast.8 mph81%30.18 "HgN/A
1:00 AM41 °FOvercast.8 mph76%30.18 "HgN/A
12:30 AM41 °FOvercast.6 mph76%30.18 "HgN/A
12:00 AM41 °FOvercast.6 mph76%30.15 "HgN/A
11:30 PM
Sep 17
41 °FOvercast.3 mph81%30.15 "HgN/A
11:00 PM43 °FOvercast.6 mph71%30.15 "HgN/A
10:30 PM43 °FOvercast.1 mph71%30.15 "HgN/A
10:00 PM45 °FOvercast.3 mph66%30.15 "HgN/A
9:30 PM45 °FOvercast.6 mph66%30.15 "HgN/A
9:00 PM45 °FOvercast.6 mph66%30.15 "HgN/A
8:30 PM45 °FMore clouds than sun.6 mph66%30.12 "HgN/A
8:00 PM46 °FMore clouds than sun.6 mph66%30.12 "HgN/A
7:30 PM46 °FMore clouds than sun.3 mph57%30.12 "HgN/A
7:00 PM46 °FMore clouds than sun.10 mph66%30.12 "HgN/A
6:30 PM48 °FMore clouds than sun.8 mph58%30.12 "HgN/A
6:00 PM48 °FSunny.8 mph54%30.12 "Hg10 mi
5:30 PM48 °FSunny.10 mph50%30.09 "Hg10 mi
5:00 PM48 °FSunny.10 mph50%30.09 "Hg10 mi
Weather by CustomWeather, © 2014

See weather overviewHow to use our weather pages